WGS 10 (USA 291) (44071 NORAD) Tracking and Keplerian Element Data

This shows tracking and keplerian element data for the satellite.

Feedback or suggestion? Click here.




ElementValue
Catalog44071
NameWGS 10 (USA 291)
Epoch Orbit2482
Epoch Day353.94552851
Epoch Year2025
RAAN329.7818
Inclination0.0119
Eccentricity3.43E-05
Argument of Perigee33.5026
Mean Anonmoly126.2125
Mean Motion1.002698
Decay Rate7.1E-07
L11 44071U 19014A 25353.94552851 .00000071 00000+0 00000+0 0 9994
L22 44071 0.0119 329.7818 0000343 33.5026 126.2125 1.00269800 24827



Live tracking and technical data element details for WGS 10 (USA 291) (NORAD 44071). WGS 10 (USA 291) can be tracked NOW for your location showing map with azimuth and elevation plus other details from your city location.







IsCatalogInMostPopularTable: catalog: 44071, numindb: 1207
Update: records affected: 1



GetName: 44071 WGS 10 (USA 291)

Hit Count: updated at: Sat, 18 Apr 2026 16:44:13 GMT